Weather in Tikrit

Iraq     34°37′13″N   43°40′32″E
temp.,
°C
wind,
m/s
gust,
m/s
humid.,
%
clouds,
%
prec.,
mm/h
press.,
hPa
HPBL,
m
14 may, fri
fri1400:00+31nne23130 0.0 100512
03:00+29nne44151 0.0 100534
06:00+28ne34220 0.0 100652
09:00+35ne34160 0.0 1007537
12:00+40n5680 0.0 10064664
15:00+41nnw8775 0.0 10045151
18:00+39nnw6881 0.0 1004797
21:00+34n59110 0.0 100598
15 may, sat
sat1500:00+32nne57140 0.0 100581
03:00+29n44160 0.0 100538
06:00+29n56220 0.0 100591
09:00+36nne67120 0.0 1006875
12:00+40n5690 0.0 10054169
15:00+41nw6684 0.0 10034711
18:00+39nw8980 0.0 10031165
21:00+33nw613100 0.0 1004193
16 may, sun
sun1600:00+30nnw510120 0.0 1004140
03:00+29n45120 0.0 100453
06:00+28nnw57110 0.0 100492
09:00+36nnw4460 0.0 1005778
12:00+40wnw3550 0.0 10042622
15:00+41wnw6750 0.0 10034049
18:00+39nw4560 0.0 1002123
21:00+32n12100 0.0 100311
17 may, mon
mon1700:00+30nne11101 0.0 100311
03:00+28ene22104 0.0 100311
06:00+29sse441084 0.0 100427
09:00+37s46612 0.0 1004644
12:00+41ssw895100 0.0 10032963
15:00+41wsw89687 0.0 10022730
18:00+37w7810100 0.0 1002661
21:00+34nw8149100 0.0 1003370
18 may, tue
tue1800:00+31nnw591251 0.0 1004142
03:00+30nnw691478 0.0 1003135
06:00+28nw59161 0.0 1004179
09:00+32nw88130 0.0 1005645
12:00+37wnw77110 0.0 10052058
15:00+37wnw8890 0.0 10032466
18:00+35wnw78120 0.0 10032256
21:00+30wnw44160 0.0 100539